Weather History for Farmville, VA

Change the Weather History Date:

Thursday, April 4, 2013

  Actual Average Record
Temperature  
Mean Temperature 42 °F -  
Max Temperature 51 °F 68 °F 87 °F (1934)
Min Temperature 32 °F 43 °F 19 °F (1943)
Degree Days  
Heating Degree Days 24    
Moisture  
Dew Point 17 °F    
Average Humidity 47    
Maximum Humidity 93    
Minimum Humidity 15    
Precipitation  
Precipitation 0.00 in - - ()
Sea Level Pressure  
Sea Level Pressure 30.27 in    
Wind  
Wind Speed 5 mph (NNE)    
Max Wind Speed 10 mph    
Max Gust Speed 28 mph    
Visibility 8 miles    
Events Rain    
Averages and records for this station are not official NWS values.
T = Trace of Precipitation, MM = Missing Value Source: NWS Daily Summary

Daily Weather History Graph

Daily Weather History Graph

Search for Another Location

Airport:

Trip Planner

Search our weather history database for the weather conditions in past years. The results will help you decide how hot, cold, wet, or windy it might be!

Date:

Astronomy

Apr. 04, 2013 Rise Set
Actual Time 6:54 AM EDT 7:39 PM EDT
Civil Twilight 6:28 AM EDT 8:05 PM EDT
Nautical Twilight 5:56 AM EDT 8:37 PM EDT
Astronomical Twilight 5:24 AM EDT 9:09 PM EDT
Moon 3:12 AM EDT (4/4) 2:02 PM EDT (4/4)
Length of Visible Light 13h 37m
Length of Day
12h 44m
Waning Crescent, 34% of the Moon is Illuminated
Apr 4
Waning Crescent
Apr 10
New
Apr 18
First Quarter
Apr 25
Full
May 2
Last Quarter

Hourly Weather History & Observations

Time (EDT) Temp. Windchill Dew Point Humidity Pressure Visibility Wind Dir Wind Speed Gust Speed Precip Events Conditions
12:15 AM 42.8 °F 40.1 °F 8.6 °F 25% 30.35 in 10.0 mi NNE 4.6 mph - N/A   Clear
12:35 AM 41.0 °F 35.8 °F 8.6 °F 26% 30.35 in 10.0 mi NNE 8.1 mph - N/A   Clear
12:55 AM 39.2 °F 37.0 °F 8.6 °F 28% 30.36 in 10.0 mi NE 3.5 mph - N/A   Clear
1:15 AM 37.4 °F 33.8 °F 10.4 °F 33% 30.36 in 10.0 mi NNE 4.6 mph - N/A   Clear
1:35 AM 39.2 °F 33.6 °F 10.4 °F 31% 30.36 in 10.0 mi NE 8.1 mph - N/A   Clear
1:55 AM 39.2 °F 35.0 °F 10.4 °F 31% 30.37 in 10.0 mi NE 5.8 mph - N/A   Clear
2:15 AM 37.4 °F 32.8 °F 10.4 °F 33% 30.37 in 10.0 mi NE 5.8 mph - N/A   Clear
2:35 AM 37.4 °F 33.8 °F 10.4 °F 33% 30.36 in 10.0 mi NNE 4.6 mph - N/A   Clear
2:55 AM 35.6 °F 30.7 °F 10.4 °F 35% 30.35 in 10.0 mi NNE 5.8 mph - N/A   Clear
3:15 AM 35.6 °F 29.9 °F 12.2 °F 38% 30.35 in 10.0 mi NNE 6.9 mph - N/A   Clear
3:35 AM 35.6 °F 29.2 °F 12.2 °F 38% 30.35 in 10.0 mi NNE 8.1 mph - N/A   Clear
3:55 AM 35.6 °F 29.9 °F 12.2 °F 38% 30.35 in 10.0 mi NNE 6.9 mph - N/A   Clear
4:15 AM 35.6 °F 30.7 °F 12.2 °F 38% 30.35 in 10.0 mi NNE 5.8 mph - N/A   Clear
4:35 AM 35.6 °F 32.8 °F 12.2 °F 38% 30.36 in 10.0 mi NNE 3.5 mph - N/A   Clear
4:55 AM 33.8 °F 29.6 °F 12.2 °F 41% 30.35 in 10.0 mi NNE 4.6 mph - N/A   Clear
5:15 AM 33.8 °F 28.6 °F 12.2 °F 41% 30.36 in 10.0 mi NNE 5.8 mph - N/A   Clear
5:35 AM 33.8 °F 30.8 °F 12.2 °F 41% 30.37 in 10.0 mi NNE 3.5 mph - N/A   Clear
5:55 AM 33.8 °F 30.8 °F 12.2 °F 41% 30.36 in 10.0 mi North 3.5 mph - N/A   Clear
6:15 AM 33.8 °F 30.8 °F 12.2 °F 41% 30.36 in 10.0 mi North 3.5 mph - N/A   Clear
6:35 AM 33.8 °F 30.8 °F 12.2 °F 41% 30.36 in 10.0 mi North 3.5 mph - N/A   Clear
6:55 AM 33.8 °F 30.8 °F 15.8 °F 48% 30.37 in 10.0 mi North 3.5 mph - N/A   Clear
7:15 AM 33.8 °F 30.8 °F 15.8 °F 48% 30.38 in 10.0 mi North 3.5 mph - N/A   Clear
7:35 AM 32.0 °F 28.7 °F 19.4 °F 60% 30.39 in 10.0 mi NNE 3.5 mph - N/A   Clear
7:55 AM 33.8 °F 30.8 °F 15.8 °F 48% 30.40 in 10.0 mi North 3.5 mph - N/A   Clear
8:15 AM 35.6 °F 32.8 °F 15.8 °F 44% 30.40 in 10.0 mi North 3.5 mph - N/A   Clear
8:35 AM 35.6 °F 31.7 °F 15.8 °F 44% 30.40 in 10.0 mi NNE 4.6 mph - N/A   Clear
8:55 AM 35.6 °F 30.7 °F 15.8 °F 44% 30.40 in 10.0 mi NNE 5.8 mph - N/A   Clear
9:15 AM 37.4 °F 33.8 °F 15.8 °F 41% 30.41 in 10.0 mi NNE 4.6 mph - N/A   Clear
9:35 AM 39.2 °F 35.9 °F 15.8 °F 39% 30.40 in 10.0 mi NNE 4.6 mph - N/A   Clear
9:55 AM 39.2 °F 35.0 °F 15.8 °F 39% 30.38 in 10.0 mi NE 5.8 mph - N/A   Clear
10:15 AM 42.8 °F - 10.4 °F 27% 30.37 in 10.0 mi Calm Calm - N/A   Clear
10:35 AM 42.8 °F 38.6 °F 8.6 °F 25% 30.36 in 10.0 mi NNE 6.9 mph - N/A   Clear
10:55 AM 44.6 °F 40.2 °F 3.2 °F 18% 30.35 in 10.0 mi NE 8.1 mph - N/A   Clear
11:15 AM 44.6 °F 40.2 °F 1.4 °F 17% 30.35 in 10.0 mi ENE 8.1 mph - N/A   Clear
11:35 AM 44.6 °F 41.4 °F 1.4 °F 17% 30.34 in 10.0 mi ENE 5.8 mph - N/A   Clear
11:55 AM 46.4 °F 42.9 °F 3.2 °F 17% 30.34 in 10.0 mi East 6.9 mph - N/A   Clear
12:35 PM 46.4 °F 45.2 °F 5.0 °F 18% 30.30 in 10.0 mi North 3.5 mph - N/A   Clear
12:55 PM 48.2 °F - 6.8 °F 19% 30.29 in 10.0 mi East 4.6 mph - N/A   Clear
1:15 PM 51.8 °F - 6.8 °F 16% 30.28 in 10.0 mi Calm Calm - N/A   Clear
1:35 PM 50.0 °F - 3.2 °F 15% 30.27 in 10.0 mi ENE 4.6 mph - N/A   Clear
1:55 PM 50.0 °F - 3.2 °F 15% 30.26 in 10.0 mi East 5.8 mph - N/A   Clear
2:15 PM 50.0 °F - 5.0 °F 16% 30.24 in 10.0 mi East 6.9 mph - N/A   Clear
2:35 PM 48.2 °F - 5.0 °F 17% 30.24 in 10.0 mi Calm Calm - N/A   Clear
2:55 PM 51.8 °F - 6.8 °F 16% 30.24 in 10.0 mi ESE 3.5 mph - N/A   Clear
3:15 PM 48.2 °F - 8.6 °F 20% 30.24 in 10.0 mi SSE 3.5 mph - N/A   Clear
3:35 PM 48.2 °F - 8.6 °F 20% 30.26 in 10.0 mi SSW 3.5 mph - N/A   Scattered Clouds
3:55 PM 48.2 °F - 8.6 °F 20% 30.24 in 10.0 mi Calm Calm - N/A   Mostly Cloudy
4:15 PM 48.2 °F - 6.8 °F 19% 30.21 in 10.0 mi Calm Calm - N/A   Mostly Cloudy
4:35 PM 48.2 °F - 8.6 °F 20% 30.20 in 10.0 mi Calm Calm - N/A   Mostly Cloudy
4:55 PM 48.2 °F - 14.0 °F 25% 30.20 in 10.0 mi Calm Calm - N/A   Overcast
5:15 PM 46.4 °F - 17.6 °F 32% 30.20 in 10.0 mi Calm Calm - N/A   Overcast
5:35 PM 42.8 °F 38.0 °F 24.8 °F 49% 30.21 in 5.0 mi WSW 8.1 mph 27.6 mph N/A Rain Heavy Rain
5:55 PM 39.2 °F 37.0 °F 32.0 °F 75% 30.20 in 7.0 mi SW 3.5 mph - N/A Rain Light Rain
6:15 PM 39.2 °F 35.9 °F 35.6 °F 87% 30.20 in 3.0 mi SW 4.6 mph - N/A Rain Rain
6:35 PM 37.4 °F - 35.6 °F 93% 30.18 in 3.0 mi Calm Calm - N/A Rain Rain
6:55 PM 37.4 °F - 35.6 °F 93% 30.17 in 4.0 mi Calm Calm - N/A Rain Light Rain
7:15 PM 37.4 °F - 35.6 °F 93% 30.15 in 3.0 mi Calm Calm - N/A Rain Light Rain
7:35 PM 37.4 °F - 35.6 °F 93% 30.14 in 3.0 mi Calm Calm - N/A Rain Light Rain
7:55 PM 37.4 °F 34.9 °F 35.6 °F 93% 30.15 in 4.0 mi NNW 3.5 mph - N/A Rain Rain
8:15 PM 37.4 °F 34.9 °F 35.6 °F 93% 30.12 in 4.0 mi North 3.5 mph - N/A Rain Rain
8:35 PM 37.4 °F 33.8 °F 35.6 °F 93% 30.12 in 5.0 mi North 4.6 mph - N/A Rain Rain
8:55 PM 37.4 °F 34.9 °F 35.6 °F 93% 30.11 in 4.0 mi North 3.5 mph - N/A Rain Light Rain
9:15 PM 37.4 °F - 35.6 °F 93% 30.12 in 2.5 mi Calm Calm - N/A Rain Heavy Rain
9:35 PM 37.4 °F 32.1 °F 35.6 °F 93% 30.10 in 2.5 mi NNE 6.9 mph - N/A Rain Light Rain
9:55 PM 37.4 °F 33.8 °F 35.6 °F 93% 30.11 in 3.0 mi North 4.6 mph - N/A Rain Rain
10:15 PM 37.4 °F 32.1 °F 35.6 °F 93% 30.09 in 2.5 mi NNE 6.9 mph - N/A   Overcast
10:35 PM 37.4 °F 31.4 °F 35.6 °F 93% 30.07 in 2.5 mi NNE 8.1 mph - N/A Rain Rain
10:55 PM 37.4 °F 30.3 °F 35.6 °F 93% 30.06 in 4.0 mi NNE 10.4 mph - N/A Rain Light Rain
11:15 PM 37.4 °F 31.4 °F 35.6 °F 93% 30.04 in 3.0 mi NNE 8.1 mph - N/A Rain Light Rain
11:35 PM 37.4 °F 30.8 °F 35.6 °F 93% 30.02 in 5.0 mi NNE 9.2 mph - N/A Rain Light Rain
11:55 PM 37.4 °F 30.8 °F 35.6 °F 93% 30.02 in 5.0 mi NNE 9.2 mph - N/A Rain Light Rain